Погода в Газанджыке

Погода в Газанджыке : погода сейчас, прогноз погоды и архив. Всё, что Вы хотите узнать о погоде в Газанджыке!

Поиск расширенной информации на нашем сайте:

Другие новости

Новости СМИ2

Главная страница сайта

Новости сайта

03.07.2017

Напоминаем, что на нашем специализированном сайте Метеоцентр.Азия вы можете получить высокодетализированные автоматические прогнозы погоды по пунктам России, СНГ и мира в авиационном формате (включающие направление и скорость ветра, видимость, явления погоды, количество и форму облачности, нижнюю и верхнюю границу облачности).


Погода в Газанджыке - сегодня

Время (UTC), дата Ветер
(°,м/с) 
Видим.   Явления Облачность Т
(°С)
Тd
(°С)
f(%) Тe
(°С)
Pmin
(гПа)
dP
(гПа)
Po
(мм)
O2
(г/м3)
Тmin Tmax R s Состояние
почвы
18 16.09.17 110 (В) 10 км    ясно 
+24.3 +2.9 25 +24  1016.3  0.6  759  281    +32.5       
21 16.09.17 090 (В) 10 км    ясно 
+19.6 +2.3 32 +20  1016.7  0.3  759  285           
00 17.09.17 100 (В) 10 км    ясно 
+18 +1.9 34 +19  1016.9  0.2  760  287           
03 17.09.17 090 (В) 20000 м    ясно 
+19.2 +2.3 32 +20  1017.9  760  286           
06 17.09.17 080 (В) 20000 м    ясно 
+25.5 +3.4 24 +26  1018.9  1.1  761  280  +16.4         
09 17.09.17 070 (В) 20000 м    ясно 
+31.3 +3.8 18 +31  1018  -0.8  761  274           
12 17.09.17 050 (СВ) 20000 м    ясно 
+32.8 +4.8 17 +33  1016.5  -1.5  759  273           
15 17.09.17 130 (ЮВ) 10 км    ясно 
+27.5 +9.3 32 +28  1016.4  -0.1  759  276    +33.1       
18 17.09.17 110 (В) 10 км    ясно 
+22.6 +7.4 38 +23  1016.7  0.2  760  281    +33.1       
21 17.09.17 280 (З) 10 км    ясно 
+21.1 +7.3 41 +21  1017.1  0.4  760  283           
00 18.09.17 210 (ЮЗ) 10 км    ясно 
+20.8 +7.1 41 +21  1016.8  -0.3  760  283           
03 18.09.17 290 (З) 20000 м    ясно 
+21.2 +7 40 +21  1016.1  -0.7  759  283           
06 18.09.17 300 (СЗ) 20000 м    ясно 
+28.3 +8.4 29 +28  1018.2  2.2  761  276  +19.4         
09 18.09.17 340 (С) 20000 м    ясно 
+32.7 +7.8 21 +33  1017.1  -1.1  760  272           
12 18.09.17 090 (В) 20000 м    ясно 
+34.1 +8.6 21 +34  1015.7  -1.4  759  270           
15 18.09.17 140 (ЮВ) 10 км    ясно 
+30.2 +7.4 24 +30  1015.7  759  274    +34.3       
18 18.09.17 090 (В) 10 км    ясно 
+23.9 +7.8 36 +24  1016.1  0.3  759  280    +34.3       
21 18.09.17 070 (В) 10 км    ясно 
+20.3 +5.3 37 +20  1015.9  -0.2  759  284           
00 19.09.17 тихо ()   10 км    ясно 
+18.4 +6.4 45 +18  1016.1  0.1  759  286           
03 19.09.17 тихо ()   20000 м    ясно 
+16.8 +5.9 49 +17  1017  0.9  760  287           
06 19.09.17 080 (В) 20000 м    ясно 
+27 +2.9 21 +27  1017.8  0.9  760  278  +15.8         
09 19.09.17 060 (СВ) 20000 м    ясно 
+33.2 +0.6 13 +33  1016.7  -1  760  273           
12 19.09.17 080 (В) 20000 м    ясно 
+33.8 +1.1 13 +34  1015.1  -1.5  758  272           
15 19.09.17 110 (В) 10 км    ясно 
+27.5 +6.2 26 +28  1015.2  758  277    +34       
18 19.09.17 100 (В) 10 км    ясно 
+26.5 +0 18 +27  1015.3  0.1  759  279    +34       
Время (UTC), дата Ветер
(°,м/с) 
Видим.   Явления Облачность Т
(°С)
Тd
(°С)
f(%) Тe
(°С)
Pmin
(гПа)
dP
(гПа)
Po
(мм)
O2
(г/м3)
Тmin Tmax R s Состояние
почвы

Для получения пояснительной информации подведите курсор к названию столбца.

ПОГОДА в Газанджыке - архив

Всё, что Вы хотите узнать о погоде в Газанджыке - удобно и подробно!

Выберите нужную дату (начиная с 1 января 2015* года) и нажмите кнопку "Найти".
Будут отображены архивные сводки погоды по пункту Газанджык, начиная с указанной даты.


Отображать данные в формате CSV (для использования в таблицах Excel)


Внимание! Наш архив погоды предназначен исключительно для личного некоммерческого использования в познавательных целях. Если Вам необходимы официальные справки о состоянии погоды (для производственных, юридических, коммерческих и т.п. целей), обращайтесь в органы Росгидромета.

*Примечание: данная дата относится к архиву по метеостанциям СССР (Россия, СНГ, Балтия).
Архив по метеостанциям Зарубежной Европы и Азии (кроме Китая) хранится 10 дней, по другим регионам земного шара (Китай, Африка, Америка, Австралия, Океания) - 1 день.

Газанджык - район местоположения метеостанции


Название, широта, долгота, высота метеостанции:
Газанджык 39.2°ш. 55.5°д. 31 м над ур. моря [Туркменистан]

Дополнительная информация

В oтличие oт бoльшинства пoгoдных сайтoв мы публикуем пoдрoбную метеoинфoрмацию в детальнoм прoфессиoнальнoм фoрмате.

Характеристики температуры и влажнoсти вoздуха измеряются на высoте 2 м в тени вдали oт зданий и деревьев.
Скoрoсть ветра измеряется на высoте 10 м (на урoвне рoста челoвека скoрoсть ветра ниже в 1.5-2 раза). Если метеoстанция нахoдится в гoрoде или в лесу, тo скoрoсть ветра занижена на 2-4 м/с пo сравнению с oткрытым местoм. Скoрoсть ветра над акватoриями крупных рек и oзёр, а также на вершинах хoлмoв на 2-5 м/с выше, чем в oбычных услoвиях.
Атмoсфернoе давление в разных тoчках местнoсти мoжет значительнo oтличаться oт давления на метеoстанции, в зависимoсти oт услoвий рельефа (при пoдъёме на 10 м давление пoнижается примернo на 1 мм рт.ст.).